Location: Boca do Mato
(22.9085°S, 43.2930°W)
Time: 23:25:20
(UTC+00:00)

NOAA 6 - Visible Passes

Search period start: 24 October 2020 00:00
Search period end: 03 November 2020 00:00
Orbit: 773 x 786 km, 98.7° (Epoch: 24 October)

Date Brightness Start Highest point End Pass type
(mag) Time Alt. Az. Time Alt. Az. Time Alt. Az.
24 Oct 7.4 21:49:20 10° SSW 21:52:22 16° WSW 21:55:24 10° WNW visible
25 Oct 6.8 07:16:22 10° ENE 07:20:14 22° ESE 07:24:07 10° SSE visible
27 Oct 7.4 21:51:05 10° SW 21:54:00 15° WSW 21:56:56 10° WNW visible
28 Oct 6.8 07:17:56 10° ENE 07:21:52 23° ESE 07:25:51 10° SSE visible
30 Oct 7.4 21:52:52 10° SW 21:55:39 15° WSW 21:58:26 10° WNW visible
31 Oct 6.7 07:19:30 10° ENE 07:23:31 24° ESE 07:27:33 10° SSE visible
31 Oct 6.2 21:18:47 10° S 21:23:24 33° WSW 21:28:00 10° NW visible
02 Nov 7.5 21:54:38 10° SW 21:57:17 14° WSW 21:59:56 10° W visible
